| time (UTC) | temp F | wind direction | speed MPH | gust MPH | rain 1hr in | rain 24hr in | rain mn in | humidity % | barometer mb |
| 20260905210617 | 68 | 53 | 3.0 | 7.0 | 0.00 | 0.00 | 0.00 | 68 | 1014.8 |
| 20260905205543 | 67 | 5 | 3.0 | 7.0 | 0.00 | 0.00 | 0.00 | 68 | 1015.0 |
| 20260905204554 | 69 | 355 | 2.0 | 5.0 | 0.00 | 0.00 | 0.00 | 65 | 1015.0 |
| 20260905202521 | 67 | 312 | 2.0 | 6.0 | 0.00 | 0.00 | 0.00 | 68 | 1015.1 |
| 20260905201459 | 67 | 82 | 2.0 | 6.0 | 0.00 | 0.00 | 0.00 | 68 | 1015.1 |
| 20260905200450 | 67 | 23 | 2.0 | 6.0 | 0.00 | 0.00 | 0.00 | 66 | 1015.1 |
| 20260905195444 | 67 | 338 | 2.0 | 5.0 | 0.00 | 0.00 | 0.00 | 66 | 1015.2 |
| 20260905193256 | 66 | 334 | 3.0 | 7.0 | 0.00 | 0.00 | 0.00 | 70 | 1015.3 |
| 20260905192257 | 66 | 22 | 2.0 | 7.0 | 0.00 | 0.00 | 0.00 | 70 | 1015.3 |
| 20260905191244 | 65 | 11 | 3.0 | 7.0 | 0.00 | 0.00 | 0.00 | 73 | 1015.4 |
| 20260905190211 | 66 | 46 | 2.0 | 7.0 | 0.00 | 0.00 | 0.00 | 70 | 1015.5 |
| 20260905185206 | 65 | 61 | 2.0 | 5.0 | 0.00 | 0.00 | 0.00 | 71 | 1015.6 |
| 20260905184134 | 64 | 212 | 4.0 | 7.0 | 0.00 | 0.00 | 0.00 | 73 | 1015.6 |
| 20260905183114 | 64 | 162 | 3.0 | 9.0 | 0.00 | 0.00 | 0.00 | 72 | 1015.6 |
| 20260905182124 | 64 | 186 | 3.0 | 9.0 | 0.00 | 0.00 | 0.00 | 75 | 1015.7 |
| 20260905181139 | 63 | 201 | 4.0 | 7.0 | 0.00 | 0.00 | 0.00 | 75 | 1015.7 |
| 20260905173904 | 63 | 207 | 1.0 | 7.0 | 0.00 | 0.00 | 0.00 | 78 | 1015.6 |
| 20260905172848 | 63 | 114 | 1.0 | 7.0 | 0.00 | 0.00 | 0.00 | 77 | 1015.5 |
| 20260905171839 | 63 | 5 | 0.0 | 4.0 | 0.00 | 0.00 | 0.00 | 78 | 1015.7 |
| 20260905170852 | 62 | 331 | 2.0 | 4.0 | 0.00 | 0.00 | 0.00 | 80 | 1015.8 |
| 20260905165818 | 61 | 334 | 2.0 | 3.0 | 0.00 | 0.00 | 0.00 | 81 | 1015.8 |
| 20260905164816 | 61 | 336 | 1.0 | 3.0 | 0.00 | 0.00 | 0.00 | 82 | 1015.8 |
| 20260905162625 | 60 | 269 | 0.0 | 2.0 | 0.00 | 0.00 | 0.00 | 84 | 1015.6 |
| 20260905161554 | 60 | 244 | 0.0 | 3.0 | 0.00 | 0.00 | 0.00 | 83 | 1015.6 |
| 20260905160545 | 59 | 188 | 1.0 | 4.0 | 0.00 | 0.00 | 0.00 | 86 | 1015.5 |
| 20260905155519 | 58 | 183 | 2.0 | 4.0 | 0.00 | 0.00 | 0.00 | 89 | 1015.3 |
| 20260905154448 | 57 | 186 | 1.0 | 3.0 | 0.00 | 0.00 | 0.00 | 92 | 1015.2 |
| 20260905153458 | 57 | 170 | 0.0 | 0.0 | 0.00 | 0.00 | 0.00 | 93 | 1015.3 |
| 20260905151258 | 55 | 57 | 0.0 | 0.0 | 0.00 | 0.00 | 0.00 | 94 | 1015.4 |
| 20260905150318 | 54 | 55 | 1.0 | 2.0 | 0.00 | 0.00 | 0.00 | 94 | 1015.4 |
| 20260905144121 | 54 | 0 | 0.0 | 2.0 | 0.00 | 0.00 | 0.00 | 94 | 1015.4 |
| 20260905141959 | 53 | 117 | 0.0 | 0.0 | 0.00 | 0.00 | 0.00 | 95 | 1015.4 |
| 20260905141009 | 53 | 117 | 0.0 | 0.0 | 0.00 | 0.00 | 0.00 | 95 | 1015.3 |
| 20260905134916 | 53 | 117 | 0.0 | 0.0 | 0.00 | 0.00 | 0.00 | 95 | 1015.1 |
| 20260905133853 | 53 | 107 | 0.0 | 0.0 | 0.00 | 0.00 | 0.00 | 95 | 1015.0 |
| 20260905132851 | 52 | 107 | 0.0 | 0.0 | 0.00 | 0.00 | 0.00 | 94 | 1014.9 |
| 20260905130647 | 53 | 107 | 0.0 | 0.0 | 0.00 | 0.00 | 0.00 | 95 | 1014.9 |
| 20260905124608 | 52 | 100 | 0.0 | 0.0 | 0.00 | 0.00 | 0.00 | 95 | 1014.9 |
| 20260905123556 | 52 | 100 | 0.0 | 0.0 | 0.00 | 0.00 | 0.00 | 94 | 1014.7 |
| 20260905122535 | 52 | 100 | 0.0 | 1.0 | 0.00 | 0.00 | 0.00 | 93 | 1014.8 |
| 20260905121501 | 54 | 44 | 0.0 | 1.0 | 0.00 | 0.00 | 0.00 | 94 | 1014.7 |
| 20260905120513 | 54 | 119 | 0.0 | 0.0 | 0.00 | 0.00 | 0.00 | 94 | 1014.7 |
| 20260905115455 | 54 | 119 | 0.0 | 0.0 | 0.00 | 0.00 | 0.00 | 94 | 1014.7 |
| 20260905114505 | 54 | 176 | 0.0 | 0.0 | 0.00 | 0.00 | 0.00 | 94 | 1014.7 |
| 20260905113511 | 53 | 176 | 0.0 | 0.0 | 0.00 | 0.00 | 0.00 | 93 | 1014.7 |
| 20260905112510 | 53 | 176 | 0.0 | 0.0 | 0.00 | 0.00 | 0.00 | 94 | 1014.6 |
| 20260905111504 | 53 | 176 | 0.0 | 0.0 | 0.00 | 0.00 | 0.00 | 94 | 1014.5 |
| 20260905110446 | 53 | 176 | 0.0 | 0.0 | 0.00 | 0.00 | 0.00 | 93 | 1014.5 |
| 20260905105442 | 53 | 116 | 0.0 | 0.0 | 0.00 | 0.00 | 0.00 | 92 | 1014.5 |
| 20260905104448 | 54 | 121 | 0.0 | 1.0 | 0.00 | 0.00 | 0.00 | 93 | 1014.5 |
| 20260905103446 | 54 | 128 | 0.0 | 1.0 | 0.00 | 0.00 | 0.00 | 93 | 1014.4 |
| 20260905102429 | 54 | 155 | 0.0 | 1.0 | 0.00 | 0.00 | 0.00 | 92 | 1014.5 |
| 20260905101452 | 54 | 119 | 0.0 | 0.0 | 0.00 | 0.00 | 0.00 | 93 | 1014.4 |
| 20260905100455 | 54 | 131 | 0.0 | 0.0 | 0.00 | 0.00 | 0.00 | 93 | 1014.4 |
| 20260905095502 | 54 | 131 | 0.0 | 0.0 | 0.00 | 0.00 | 0.00 | 93 | 1014.4 |
| 20260905094511 | 54 | 131 | 0.0 | 0.0 | 0.00 | 0.00 | 0.00 | 93 | 1014.4 |
| 20260905093522 | 54 | 131 | 0.0 | 0.0 | 0.00 | 0.00 | 0.00 | 93 | 1014.4 |
| 20260905092525 | 54 | 131 | 0.0 | 0.0 | 0.00 | 0.00 | 0.00 | 93 | 1014.4 |
| 20260905091511 | 53 | 131 | 0.0 | 0.0 | 0.00 | 0.00 | 0.00 | 93 | 1014.4 |
| 20260905090514 | 52 | 131 | 0.0 | 0.0 | 0.00 | 0.00 | 0.00 | 93 | 1014.4 |
| 20260905084343 | 54 | 136 | 0.0 | 0.0 | 0.00 | 0.00 | 0.00 | 92 | 1014.4 |
| 20260905083358 | 54 | 154 | 0.0 | 0.0 | 0.00 | 0.00 | 0.00 | 92 | 1014.2 |
| 20260905082333 | 54 | 154 | 0.0 | 0.0 | 0.00 | 0.00 | 0.00 | 91 | 1014.2 |
| 20260905081258 | 54 | 161 | 0.0 | 0.0 | 0.00 | 0.00 | 0.00 | 90 | 1014.1 |
| 20260905080258 | 55 | 161 | 0.0 | 0.0 | 0.00 | 0.00 | 0.00 | 90 | 1014.1 |
| 20260905075317 | 55 | 161 | 0.0 | 0.0 | 0.00 | 0.00 | 0.00 | 90 | 1014.1 |
| 20260905074322 | 54 | 161 | 0.0 | 2.0 | 0.00 | 0.00 | 0.00 | 91 | 1014.1 |
| 20260905073308 | 55 | 149 | 0.0 | 0.0 | 0.00 | 0.00 | 0.00 | 90 | 1014.1 |
| 20260905072329 | 55 | 44 | 0.0 | 0.0 | 0.00 | 0.00 | 0.00 | 90 | 1014.0 |
| 20260905071254 | 55 | 44 | 0.0 | 0.0 | 0.00 | 0.00 | 0.00 | 90 | 1013.9 |
| 20260905062913 | 55 | 44 | 0.0 | 0.0 | 0.00 | 0.00 | 0.00 | 89 | 1013.8 |
| 20260905061930 | 55 | 44 | 0.0 | 0.0 | 0.00 | 0.00 | 0.00 | 89 | 1013.7 |
| 20260905060938 | 56 | 44 | 0.0 | 3.0 | 0.00 | 0.00 | 0.00 | 89 | 1013.7 |
| 20260905055957 | 56 | 20 | 1.0 | 3.0 | 0.00 | 0.00 | 0.00 | 89 | 1013.6 |
| 20260905055013 | 55 | 11 | 0.0 | 1.0 | 0.00 | 0.00 | 0.00 | 90 | 1013.7 |
| 20260905054014 | 55 | 28 | 0.0 | 0.0 | 0.00 | 0.00 | 0.00 | 89 | 1013.7 |
| 20260905053014 | 55 | 34 | 0.0 | 0.0 | 0.00 | 0.00 | 0.00 | 89 | 1013.7 |
| 20260905051954 | 55 | 38 | 0.0 | 1.0 | 0.00 | 0.00 | 0.00 | 89 | 1013.7 |
| 20260905051004 | 55 | 117 | 0.0 | 0.0 | 0.00 | 0.00 | 0.00 | 88 | 1013.7 |
| 20260905045950 | 56 | 74 | 0.0 | 0.0 | 0.00 | 0.00 | 0.00 | 87 | 1013.8 |
| 20260905043805 | 56 | 95 | 0.0 | 0.0 | 0.00 | 0.00 | 0.00 | 87 | 1013.7 |
| 20260905042759 | 56 | 95 | 0.0 | 0.0 | 0.00 | 0.00 | 0.00 | 86 | 1013.7 |
| 20260905040707 | 57 | 95 | 0.0 | 0.0 | 0.00 | 0.00 | 0.00 | 85 | 1013.8 |
| 20260905035726 | 57 | 95 | 0.0 | 0.0 | 0.00 | 0.00 | 0.00 | 85 | 1013.7 |
| 20260905034719 | 57 | 107 | 0.0 | 0.0 | 0.00 | 0.00 | 0.00 | 84 | 1013.7 |
| 20260905033732 | 57 | 111 | 0.0 | 0.0 | 0.00 | 0.00 | 0.00 | 84 | 1013.6 |
| 20260905032717 | 57 | 111 | 0.0 | 0.0 | 0.00 | 0.00 | 0.00 | 84 | 1013.4 |
| 20260905031653 | 57 | 111 | 0.0 | 0.0 | 0.00 | 0.00 | 0.00 | 83 | 1013.3 |
| 20260905030659 | 58 | 51 | 0.0 | 0.0 | 0.00 | 0.00 | 0.00 | 83 | 1013.1 |
| 20260905025655 | 59 | 51 | 0.0 | 0.0 | 0.00 | 0.00 | 0.00 | 81 | 1013.0 |
| 20260905024707 | 59 | 78 | 0.0 | 0.0 | 0.00 | 0.00 | 0.00 | 80 | 1013.1 |
| 20260905023731 | 60 | 94 | 0.0 | 2.0 | 0.00 | 0.00 | 0.00 | 78 | 1013.0 |
| 20260905022754 | 60 | 56 | 0.0 | 1.0 | 0.00 | 0.00 | 0.00 | 78 | 1012.9 |
| 20260905020651 | 62 | 82 | 0.0 | 3.0 | 0.00 | 0.00 | 0.00 | 75 | 1012.8 |
| 20260905014600 | 64 | 57 | 1.0 | 3.0 | 0.00 | 0.00 | 0.00 | 70 | 1012.6 |
| 20260905013534 | 64 | 51 | 1.0 | 3.0 | 0.00 | 0.00 | 0.00 | 70 | 1012.6 |
| 20260905012529 | 64 | 9 | 1.0 | 4.0 | 0.00 | 0.00 | 0.00 | 70 | 1012.5 |
| 20260905011523 | 64 | 29 | 2.0 | 4.0 | 0.00 | 0.00 | 0.00 | 71 | 1012.4 |
| 20260905010517 | 64 | 14 | 1.0 | 4.0 | 0.00 | 0.00 | 0.00 | 72 | 1012.5 |
| 20260905005542 | 64 | 29 | 1.0 | 3.0 | 0.00 | 0.00 | 0.00 | 71 | 1012.4 |
| 20260905004551 | 64 | 48 | 1.0 | 4.0 | 0.00 | 0.00 | 0.00 | 71 | 1012.3 |
| 20260905003557 | 64 | 38 | 2.0 | 7.0 | 0.00 | 0.00 | 0.00 | 71 | 1012.2 |
| 20260905002552 | 64 | 34 | 2.0 | 7.0 | 0.00 | 0.00 | 0.00 | 71 | 1012.1 |
| 20260905001608 | 65 | 331 | 2.0 | 4.0 | 0.00 | 0.00 | 0.00 | 70 | 1012.1 |
| 20260904235513 | 64 | 42 | 3.0 | 5.0 | 0.00 | 0.00 | 0.00 | 73 | 1012.0 |
| 20260904234510 | 64 | 21 | 2.0 | 4.0 | 0.00 | 0.00 | 0.00 | 73 | 1011.9 |
| 20260904232404 | 64 | 75 | 2.0 | 5.0 | 0.00 | 0.00 | 0.00 | 73 | 1011.8 |
| 20260904231357 | 64 | 33 | 2.0 | 5.0 | 0.00 | 0.00 | 0.00 | 73 | 1011.8 |
| 20260904225259 | 65 | 278 | 2.0 | 7.0 | 0.00 | 0.00 | 0.00 | 72 | 1011.8 |
| 20260904221908 | 67 | 329 | 3.0 | 8.0 | 0.00 | 0.00 | 0.00 | 68 | 1011.8 |
| 20260904220922 | 66 | 22 | 4.0 | 10.0 | 0.00 | 0.00 | 0.00 | 69 | 1011.8 |
| 20260904215919 | 65 | 11 | 5.0 | 10.0 | 0.00 | 0.00 | 0.00 | 71 | 1011.8 |
| 20260904214920 | 66 | 24 | 5.0 | 10.0 | 0.00 | 0.00 | 0.00 | 70 | 1011.8 |
| 20260904212756 | 66 | 29 | 4.0 | 10.0 | 0.00 | 0.00 | 0.00 | 70 | 1011.7 |
| 20260904211732 | 65 | 80 | 4.0 | 9.0 | 0.00 | 0.00 | 0.00 | 70 | 1011.9 |
| 20260904210729 | 67 | 24 | 3.0 | 8.0 | 0.00 | 0.00 | 0.00 | 67 | 1011.9 |